Location: Eisingen in Unterfranken
(49.7591°N, 9.8347°E)
Time: 13:12:06
(UTC+01:00)

N. Korean satellite - Pass Details

Date: 05 December 2022
Orbit: 407 x 441 km, 97.3° (Epoch: 05 February)

Event Time Altitude Azimuth Distance (km) Brightness Sun altitude
Rises 17:23:36 0° 192° (SSW) 2,458 10.7 -9.7°
Reaches altitude 10° 17:25:49 10° 205° (SSW) 1,601 9.9 -10.0°
Maximum altitude 17:28:47 27° 265° (W) 934 8.9 -10.4°
Drops below altitude 10° 17:31:49 10° 325° (NW) 1,635 9.4 -10.9°
Sets 17:34:07 0° 338° (NNW) 2,523 10.2 -11.2°
